Location: Katowice
(50.2611°N, 19.0242°E)
Time: 00:56:43
(UTC+02:00)

SR - All Passes

Search period start: 21 July 2019 00:00
Search period end: 31 July 2019 00:00
Orbit: 580 x 876 km, 66.7° (Epoch: 20 July)

Date Brightness Start Highest point End Pass type
(mag) Time Alt. Az. Time Alt. Az. Time Alt. Az.
21 Jul - 01:43:06 10° NNW 01:44:34 11° N 01:46:04 10° NNE visible
21 Jul - 03:25:11 10° NNW 03:28:37 18° NNE 03:32:14 10° ENE visible
21 Jul - 05:06:40 10° NNW 05:11:40 58° NE 05:17:04 10° SE daylight
21 Jul - 06:49:05 10° NW 06:53:32 29° WSW 06:58:16 10° S daylight
21 Jul - 21:23:32 10° SSW 21:27:49 71° ESE 21:32:24 10° NE visible
21 Jul - 23:06:43 10° W 23:10:21 24° NNW 23:14:13 10° NNE visible
22 Jul - 00:52:26 10° NNW 00:54:10 12° N 00:55:57 10° NNE visible
22 Jul - 02:35:43 10° NNW 02:38:22 14° NNE 02:41:07 10° NE visible
22 Jul - 04:17:11 10° NNW 04:21:50 36° NE 04:26:49 10° ESE visible
22 Jul - 05:59:06 10° NW 06:04:05 52° WSW 06:09:28 10° SSE daylight
22 Jul - 20:34:26 10° S 20:38:22 36° ESE 20:42:31 10° NE daylight
22 Jul - 22:16:18 10° WSW 22:20:23 38° NW 22:24:45 10° NNE visible
23 Jul - 00:01:24 10° NW 00:03:49 14° NNW 00:06:20 10° NNE visible
23 Jul - 01:46:07 10° NNW 01:48:01 12° N 01:49:59 10° NNE visible
23 Jul - 03:27:43 10° NNW 03:31:50 25° NE 03:36:12 10° E visible
23 Jul - 05:09:23 10° NW 05:14:30 89° SW 05:20:04 10° SE daylight
23 Jul - 06:52:37 10° WNW 06:56:01 18° WSW 06:59:34 10° SSW daylight
23 Jul - 19:46:05 10° SSE 19:49:04 19° ESE 19:52:11 10° ENE daylight
23 Jul - 21:26:15 10° SW 21:30:34 66° NW 21:35:12 10° NNE visible
23 Jul - 23:10:27 10° WNW 23:13:34 18° NNW 23:16:50 10° NNE visible
24 Jul - 00:56:05 10° NNW 00:57:38 11° N 00:59:12 10° NNE visible
24 Jul - 02:38:17 10° NNW 02:41:42 18° NNE 02:45:17 10° ENE visible
24 Jul - 04:19:48 10° NNW 04:24:48 56° NE 04:30:12 10° SE visible
24 Jul - 06:02:09 10° NW 06:06:42 31° WSW 06:11:32 10° S daylight
24 Jul - 20:36:40 10° SSW 20:40:56 67° ESE 20:45:31 10° NE daylight
24 Jul - 22:19:43 10° W 22:23:26 25° NW 22:27:23 10° NNE visible
25 Jul - 00:05:22 10° NNW 00:07:14 12° N 00:09:09 10° NNE visible
25 Jul - 01:48:49 10° NNW 01:51:27 14° NNE 01:54:10 10° NE visible
25 Jul - 03:30:18 10° NNW 03:34:56 35° NE 03:39:55 10° ESE visible
25 Jul - 05:12:12 10° NW 05:17:14 55° WSW 05:22:40 10° SSE daylight
25 Jul - 19:47:37 10° S 19:51:30 34° ESE 19:55:37 10° NE daylight
25 Jul - 21:29:21 10° WSW 21:33:29 39° NW 21:37:54 10° NNE visible
25 Jul - 23:14:21 10° NW 23:16:53 14° NNW 23:19:30 10° NNE visible
26 Jul - 00:59:10 10° NNW 01:01:05 12° N 01:03:04 10° NNE visible
26 Jul - 02:40:51 10° NNW 02:44:56 24° NNE 02:49:17 10° E visible
26 Jul - 04:22:29 10° NW 04:27:39 87° NE 04:33:14 10° SE visible
26 Jul - 06:05:36 10° WNW 06:09:11 19° WSW 06:12:56 10° SSW daylight
26 Jul - 18:59:21 10° SSE 19:02:14 18° ESE 19:05:14 10° ENE daylight
26 Jul - 20:39:21 10° SW 20:43:40 69° NW 20:48:20 10° NE daylight
26 Jul - 22:23:25 10° WNW 22:26:38 19° NNW 22:30:01 10° NNE visible
27 Jul - 00:09:04 10° NNW 00:10:41 11° N 00:12:21 10° NNE visible
27 Jul - 01:51:24 10° NNW 01:54:47 18° NNE 01:58:21 10° ENE visible
27 Jul - 03:32:55 10° NNW 03:37:55 53° NE 03:43:20 10° SE visible
27 Jul - 05:15:13 10° NW 05:19:52 33° WSW 05:24:48 10° S daylight
27 Jul - 19:49:48 10° SSW 19:54:04 63° ESE 19:58:39 10° NE daylight
27 Jul - 21:32:44 10° W 21:36:32 26° NW 21:40:33 10° NNE visible
27 Jul - 23:18:19 10° NW 23:20:17 12° N 23:22:19 10° NNE visible
28 Jul - 01:01:54 10° NNW 01:04:31 14° NNE 01:07:13 10° NE visible
28 Jul - 02:43:25 10° NNW 02:48:03 34° NE 02:53:01 10° ESE visible
28 Jul - 04:25:18 10° NW 04:30:24 58° WSW 04:35:53 10° SSE visible
28 Jul - 06:10:55 10° W 06:11:33 10° WSW 06:12:12 10° WSW daylight
28 Jul - 19:00:48 10° S 19:04:39 32° ESE 19:08:43 10° NE daylight
28 Jul - 20:42:23 10° WSW 20:46:34 41° NW 20:51:04 10° NNE daylight
28 Jul - 22:27:19 10° NW 22:29:57 15° NNW 22:32:41 10° NNE visible
29 Jul - 00:12:13 10° NNW 00:14:09 12° N 00:16:09 10° NNE visible
29 Jul - 01:53:58 10° NNW 01:58:02 24° NNE 02:02:21 10° E visible
29 Jul - 03:35:36 10° NW 03:40:47 84° NE 03:46:24 10° SE visible
29 Jul - 05:18:37 10° WNW 05:22:23 20° WSW 05:26:17 10° SSW daylight
29 Jul - 18:12:37 10° SSE 18:15:23 17° ESE 18:18:16 10° ENE daylight
29 Jul - 19:52:26 10° SW 19:56:47 73° NW 20:01:29 10° NE daylight
29 Jul - 21:36:25 10° WNW 21:39:43 19° NNW 21:43:12 10° NNE visible
29 Jul - 23:22:03 10° NNW 23:23:45 12° N 23:25:30 10° NNE visible
30 Jul - 01:04:30 10° NNW 01:07:52 18° NNE 01:11:23 10° ENE visible
30 Jul - 02:46:02 10° NNW 02:51:02 51° NE 02:56:27 10° ESE visible
30 Jul - 04:28:18 10° NW 04:33:02 35° WSW 04:38:04 10° S visible
30 Jul - 19:02:55 10° SSW 19:07:11 60° ESE 19:11:47 10° NE daylight
30 Jul - 20:45:46 10° W 20:49:37 28° NW 20:53:43 10° NNE daylight
30 Jul - 22:31:16 10° NW 22:33:21 13° N 22:35:30 10° NNE visible
